CW9879 Weather Reports


time (UTC)temp
C
wind
direction
speed
KPH
gust
KPH
rain 1hr
cm
rain 24hr
cm
rain mn
cm
humidity
%
barometer
mb
20260510174516 30 162 0.0 4.8 0.00 0.00 0.00 34 1013.5
20260510173003 30 96 1.6 6.4 0.00 0.00 0.00 34 1013.4
20260510171503 30 104 0.0 4.8 0.00 0.00 0.00 34 1013.4
20260510170003 30 21 0.0 4.8 0.00 0.00 0.00 35 1013.7
20260510164505 29 288 0.0 6.4 0.00 0.00 0.00 36 1013.9
20260510163004 29 32 0.0 3.2 0.00 0.00 0.00 39 1013.9
20260510161506 28 288 0.0 4.8 0.00 0.00 0.00 39 1014.1
20260510160009 28 130 0.0 4.8 0.00 0.00 0.00 43 1014.1
20260510154503 28 121 0.0 4.8 0.00 0.00 0.00 41 1014.3
20260510153004 27 230 0.0 3.2 0.00 0.00 0.00 45 1014.5
20260510151504 27 133 0.0 6.4 0.00 0.00 0.00 45 1014.5
20260510150004 26 172 0.0 4.8 0.00 0.00 0.00 46 1014.4
20260510144504 26 165 0.0 4.8 0.00 0.00 0.00 49 1014.3
20260510143004 25 257 0.0 3.2 0.00 0.00 0.00 53 1014.3
20260510141503 23 5 0.0 3.2 0.00 0.00 0.00 57 1014.1
20260510140004 22 261 0.0 3.2 0.00 0.00 0.00 62 1014.2
20260510134505 21 302 0.0 3.2 0.00 0.00 0.00 66 1014.2
20260510133005 18 219 0.0 3.2 0.00 0.00 0.00 69 1014.0
20260510131505 16 215 0.0 3.2 0.00 0.00 0.00 82 1013.8
20260510130009 15 225 0.0 3.2 0.00 0.00 0.00 90 1013.9
20260510124506 13 337 0.0 3.2 0.00 0.00 0.00 93 1014.2
20260510123006 13 244 0.0 0.0 0.00 0.00 0.00 94 1014.0
20260510121506 12 244 0.0 0.0 0.00 0.00 0.00 94 1013.8
20260510120006 11 244 0.0 0.0 0.00 0.00 0.00 93 1013.8
20260510114509 11 244 0.0 0.0 0.00 0.00 0.00 93 1013.5
20260510113011 10 244 0.0 0.0 0.00 0.00 0.00 92 1013.4
20260510111505 10 244 0.0 0.0 0.00 0.00 0.00 92 1013.2
20260510110016 10 244 0.0 0.0 0.00 0.00 0.00 92 1013.1
20260510104507 10 244 0.0 0.0 0.00 0.00 0.00 92 1012.9
20260510103007 10 244 0.0 0.0 0.00 0.00 0.00 91 1012.7
20260510101507 10 244 0.0 0.0 0.00 0.00 0.00 91 1012.5
20260510100010 10 244 0.0 0.0 0.00 0.00 0.00 91 1012.3
20260510094530 10 244 0.0 0.0 0.00 0.00 0.00 91 1012.2
20260510093014 10 238 0.0 0.0 0.00 0.00 0.00 91 1012.1
20260510091521 11 238 0.0 0.0 0.00 0.00 0.00 91 1012.0
20260510090015 11 238 0.0 0.0 0.00 0.00 0.00 91 1011.9
20260510084511 11 238 0.0 0.0 0.00 0.00 0.00 90 1011.9
20260510083012 11 238 0.0 1.6 0.00 0.00 0.00 91 1011.9
20260510081509 11 238 0.0 1.6 0.00 0.00 0.00 90 1011.8
20260510080013 11 238 0.0 0.0 0.00 0.00 0.00 90 1011.7
20260510074516 11 238 0.0 0.0 0.00 0.00 0.00 89 1011.6
20260510073018 11 238 0.0 0.0 0.00 0.00 0.00 88 1011.4
20260510071504 12 238 0.0 0.0 0.00 0.00 0.00 89 1011.3
20260510070012 12 238 0.0 0.0 0.00 0.00 0.00 88 1011.2
20260510064512 12 238 0.0 0.0 0.00 0.00 0.00 88 1011.1
20260510063018 12 238 0.0 0.0 0.00 0.00 0.00 87 1011.2
20260510061518 13 238 0.0 0.0 0.00 0.00 0.00 87 1011.1
20260510060008 13 238 0.0 0.0 0.00 0.00 0.00 86 1011.0
20260510054507 13 238 0.0 0.0 0.00 0.00 0.00 86 1011.1
20260510053041 13 238 0.0 0.0 0.00 0.00 0.00 86 1011.0
20260510051518 14 238 0.0 0.0 0.00 0.00 0.00 85 1011.0
20260510050020 14 238 0.0 0.0 0.00 0.00 0.00 84 1011.0
20260510044508 14 238 0.0 0.0 0.00 0.00 0.00 84 1011.0
20260510043012 15 238 0.0 0.0 0.00 0.00 0.00 83 1011.1
20260510041524 15 238 0.0 0.0 0.00 0.00 0.00 82 1011.0
20260510040034 15 218 0.0 0.0 0.00 0.00 0.00 82 1011.0
20260510034520 15 218 0.0 0.0 0.00 0.00 0.00 80 1010.9
20260510033008 15 218 0.0 0.0 0.00 0.00 0.00 79 1010.7
20260510031521 15 218 0.0 0.0 0.00 0.00 0.00 79 1010.5
20260510030015 16 218 0.0 0.0 0.00 0.00 0.00 77 1010.4
20260510024523 16 218 0.0 0.0 0.00 0.00 0.00 77 1010.3
20260510023022 16 218 0.0 0.0 0.00 0.00 0.00 76 1010.2
20260510021522 16 218 0.0 0.0 0.00 0.00 0.00 76 1010.1
20260510020014 16 218 0.0 0.0 0.00 0.00 0.00 75 1010.0
20260510014522 17 218 0.0 0.0 0.00 0.00 0.00 74 1009.8
20260510013026 17 218 0.0 0.0 0.00 0.00 0.00 72 1009.6
20260510011538 17 218 0.0 1.6 0.00 0.00 0.00 71 1009.4
20260510010016 18 218 0.0 1.6 0.00 0.00 0.00 69 1009.3
20260510004526 18 218 0.0 1.6 0.00 0.00 0.00 68 1009.3
20260510003024 19 218 0.0 0.0 0.00 0.00 0.00 66 1009.1
20260510001524 20 218 0.0 1.6 0.00 0.00 0.00 64 1009.0
20260510000035 21 218 0.0 1.6 0.00 0.00 0.00 62 1008.9
20260509234515 21 136 0.0 3.2 0.00 0.00 0.00 58 1008.6
20260509233021 22 232 0.0 3.2 0.00 0.00 0.00 59 1008.6
20260509231522 22 211 0.0 4.8 0.00 0.00 0.00 56 1008.6
20260509230026 23 225 0.0 4.8 0.00 0.00 0.00 55 1008.6
20260509224527 23 238 0.0 3.2 0.00 0.00 0.00 53 1008.5
20260509223016 23 284 0.0 3.2 0.00 0.00 0.00 52 1008.5
20260509221524 23 175 0.0 4.8 0.00 0.00 0.00 51 1008.6
20260509220025 23 232 0.0 4.8 0.00 0.00 0.00 49 1008.5
20260509214525 23 125 0.0 4.8 0.00 0.00 0.00 51 1008.5
20260509213032 24 161 0.0 4.8 0.00 0.00 0.00 48 1008.6
20260509211519 24 290 1.6 6.4 0.00 0.00 0.00 49 1008.3
20260509210023 24 211 1.6 6.4 0.00 0.00 0.00 51 1008.2
20260509204530 24 278 1.6 8.0 0.00 0.00 0.00 49 1008.2
20260509203029 23 323 0.0 6.4 0.00 0.00 0.00 52 1008.2
20260509201528 23 65 0.0 4.8 0.00 0.00 0.00 53 1008.3
20260509200022 23 281 0.0 6.4 0.00 0.00 0.00 52 1008.5
20260509194530 23 290 0.0 8.0 0.00 0.00 0.00 53 1008.6
20260509193031 23 329 1.6 8.0 0.00 0.00 0.00 56 1008.6
20260509191525 22 319 1.6 6.4 0.00 0.00 0.00 57 1009.2
20260509190004 22 91 0.0 3.2 0.00 0.00 0.00 60 1009.6
20260509184512 22 360 0.0 4.8 0.00 0.00 0.00 58 1009.9
20260509183008 22 69 0.0 6.4 0.00 0.00 0.00 61 1009.9
20260509181513 21 332 0.0 6.4 0.00 0.00 0.00 62 1010.2
20260509180018 21 166 0.0 6.4 0.00 0.00 0.00 61 1010.4